SCP
0 0 0 0 0 0 0 0 0 0 0 0 0 0 0 0 0 0 0 0 0 0 0 0 0 0 0 0 0 0 0 0 0 0 0 0 0 0 0 0 0 0 0
0 0 0 0 0 0 0 0 0 0 0 0 0 0 0 0 0 0 0 0 0 0 0 0 0 0 0 0 0 0 0 0 0 0 0 0 0 0 0 0 0 0 0
0 0 0 0 0 0 0 0 0 0 0 0 0 0 0 0 0 0 0 0 0 0 0 0 0 0 0 0 0 0 0 0 0 0 0 0 0 0 0 0 0 0 0
0 0 0 0 0 0 0 0 0 0 0 0 0 0 0 0 0 0 0 0 0 0 0 0 0 0 0 0 0 0 0 0 0 0 0 0 0 0 -0 -0 -0 -0 -0
0 0 0 0 0 0 0 0 0 0 0 0 0 0 0 0 0 0 0 0 0 0 0 0 0 0 0 0 0 0 0 0 0 0 0 0 0 -0 -0 -0 -0 -0 -0
0 0 0 0 0 0 0 0 0 0 0 0 0 0 0 0 0 0 0 0 0 0 0 0 0 0 0 0 0 0 0 0 0 0 0 0 0 0 0 0 0 0 0
0 0 0 0 0 0 0 0 0 0 0 0 0 0 0 0 0 0 0 0 0 0 0 0 0 0 0 0 0 0 0 0 0 0 0 0 0 0 0 0 0 0 0
0 0 0 0 0 0 0 0 0 0 0 0 0 0 0 0 0 0 0 0 0 0 0 0 0 0 0 0 0 0 0 0 0 0 0 0 0 0 0 0 0 0 0
0 0 0 0 0 0 0 0 0 0 0 0 0 0 0 0 0 0 0 0 0 0 0 0 0 0 0 0 0 0 0 0 0 0 0 0 0 0 0 0 0 0 0
0 0 0 0 0 0 0 0 0 0 0 0 0 0 0 0 0 0 0 0 0 0 0 0 0 0 0 0 0 0 0 0 0 0 0 0 0 0 0 0 0 0 0
0 0 0 0 0 0 0 0 0 0 0 0 0 0 0 0 0 0 0 0 0 0 0 0 0 0 0 0 0 0 0 0 0 0 0 0 0 0 0 0 0 0 0
0 0 0 0 0 0 0 0 0 0 0 0 0 0 0 0 0 0 0 0 0 0 0 0 0 0 0 0 0 0 0 0 0 0 0 0 0 0 0 0 0 0 0
0 0 0 0 0 0 0 0 0 0 0 0 0 0 0 0 0 0 0 0 0 0 0 0 0 0 0 0 0 0 0 0 0 0 0 0 0 0 0 0 0 0 0
0 0 0 0 0 0 0 0 0 0 0 0 0 0 0 0 0 0 0 0 0 0 0 0 0 0 0 0 0 0 0 0 0 0 0 0 0 0 0 0 0 0 0
-0 -0 0 0 0 0 0 0 0 0 0 0 0 0 0 0 0 0 0 0 0 0 0 0 0 0 0 0 0 0 0 0 0 0 0 0 0 0 0 0 0 0 0
0 0 0 0 0 0 0 0 0 0 0 0 0 0 0 0 0 0 0 0 0 0 0 0 0 0 0 0 0 0 0 0 0 0 0 0 0 0 0 0 0 0 0
0 0 0 0 0 0 0 0 0 0 0 0 0 0 0 0 0 0 0 0 0 0 0 0 0 0 0 0 0 0 0 0 0 0 0 0 0 0 0 0 0 0 0
0 0 0 0 0 0 0 0 0 0 0 0 0 0 0 0 0 0 0 0 0 0 0 0 0 0 0 0 0 0 0 0 0 0 0 0 0 0 0 0 0 0 0
0 0 0 0 0 0 0 0 0 0 0 0 0 0 0 0 0 0 0 0 0 0 0 0 0 0 0 0 0 0 0 0 0 0 0 0 0 0 0 0 0 0 0
0 0 0 0 0 0 0 0 0 0 0 0 0 0 0 0 0 0 0 0 0 0 0 0 0 0 0 0 0 0 0 0 0 0 0 0 0 0 0 0 0 0 0
0 0 0 0 0 0 0 0 0 0 0 0 0 0 0 0 0 0 0 0 0 0 0 0 0 0 0 0 0 0 0 0 0 0 0 0 0 0 0 0 0 0 0
0 0 0 0 0 0 0 0 0 0 0 0 0 0 0 0 0 0 0 0 0 0 0 0 0 0 0 0 0 0 0 0 0 0 0 0 0 0 0 0 0 0 0
0 0 0 0 0 0 0 0 0 0 0 0 0 0 0 0 0 0 0 0 0 0 0 0 0 0 0 0 0 0 0 0 0 0 0 0 0 0 0 0 0 0 0
0 0 0 0 0 0 0 0 0 0 0 0 0 0 0 0 0 0 0 0 0 0 0 0 0 0 0 0 0 0 0 0 0 0 0 0 0 0 0 0 0 0 0
0 0 0 0 0 0 0 0 0 0 0 0 0 0 0 0 0 0 0 0 0 0 0 0 0 0 0 0 0 0 0 0 0 0 0 0 0 0 0 0 0 0 0
0 0 0 0 0 0 0 0 0 0 0 0 0 0 0 0 0 0 0 0 0 0 0 0 0 0 0 0 0 0 0 0 0 0 0 0 0 0 0 0 0 0 0
Wind_Speed
7 8 10 10 9 9 9 11 12 11 13 16 18 17 17 17 16 15 14 14 14 12 10 11 10 9 7 6 5 5 5 4 5 3 2 2 2 3 6 7 7 8 8
8 8 10 9 8 11 13 13 13 14 15 16 17 18 18 18 18 19 18 17 17 16 15 13 12 10 10 8 7 7 7 6 6 5 2 2 4 4 7 8 8 8 8
10 9 10 10 11 14 16 14 13 14 14 15 17 19 20 19 19 19 18 17 17 17 16 16 15 14 13 10 10 8 7 7 6 5 4 3 5 6 7 7 8 7 7
13 11 11 12 14 16 14 12 13 14 15 17 18 18 18 18 18 18 18 17 16 15 15 15 15 16 15 14 11 11 9 8 8 6 5 5 6 6 5 4 5 4 6
14 13 12 12 12 12 11 12 13 15 16 15 15 15 15 16 17 19 19 18 18 16 15 14 14 14 18 15 11 12 11 9 7 6 6 5 4 3 3 3 7 6 7
14 14 13 12 10 10 11 11 12 14 13 14 16 17 18 16 24 30 22 18 18 18 17 15 14 15 17 22 20 19 17 11 9 7 5 5 4 3 3 5 8 9 5
14 14 14 14 12 10 9 10 13 13 13 16 16 17 19 21 30 32 31 18 18 18 18 17 13 14 16 14 19 22 20 20 17 10 7 6 4 3 5 8 8 9 10
13 13 13 14 13 11 8 10 11 10 13 14 15 16 15 19 29 31 32 19 16 17 17 18 17 17 17 17 13 12 10 10 10 6 4 4 5 5 7 8 10 10 10
13 14 14 14 14 12 10 9 8 8 10 12 12 14 16 17 28 31 30 13 13 16 16 16 17 17 24 25 16 12 11 9 12 13 12 10 11 12 9 4 4 5 8
15 16 15 14 13 13 11 9 7 8 9 9 11 12 14 13 24 31 32 12 13 13 12 14 17 17 25 27 15 13 12 11 8 6 6 6 5 6 10 6 4 4 5
16 17 17 15 14 13 11 7 6 7 7 8 8 8 10 12 21 32 33 13 14 13 13 12 14 24 25 27 20 12 13 10 7 6 3 2 2 3 4 5 6 6 7
16 18 18 17 14 10 10 8 6 7 8 8 7 6 6 9 15 25 33 25 19 13 12 12 14 27 26 25 18 17 18 11 5 4 2 2 2 3 4 5 8 9 11
17 19 18 18 15 11 10 9 7 8 8 9 8 9 8 8 12 24 29 30 26 12 9 16 19 26 25 18 20 18 10 6 5 4 3 2 2 4 5 6 8 10 13
17 19 18 17 17 13 9 9 9 10 10 10 11 11 10 10 11 12 13 18 22 16 12 15 22 24 17 12 9 10 6 6 6 5 4 2 2 3 4 6 7 8 9
18 18 17 16 16 14 11 11 12 12 12 13 11 11 12 13 16 22 16 14 14 14 14 10 9 10 10 8 7 6 6 6 6 5 3 2 2 4 5 5 6 7 9
18 17 14 13 13 13 12 11 20 20 22 26 22 17 13 17 20 28 30 28 28 28 20 14 13 12 11 10 9 8 6 6 5 5 4 3 2 4 5 6 7 7 10
18 17 14 14 14 13 12 11 10 13 23 25 26 25 21 19 22 27 30 30 31 31 15 13 12 11 10 9 8 7 6 6 5 4 3 2 2 4 5 6 7 8 10
18 18 17 14 14 14 14 12 10 9 9 10 16 24 24 22 23 25 29 26 22 21 12 12 12 11 10 9 8 7 7 6 5 4 3 2 2 3 6 7 8 9 11
17 15 14 14 14 14 13 12 9 9 9 7 5 10 19 21 22 24 26 15 12 12 10 9 10 10 9 8 7 6 6 5 4 3 2 3 3 4 6 7 8 12 12
15 20 19 15 13 13 12 10 8 8 8 8 8 7 8 10 10 13 14 10 9 10 9 9 9 9 8 8 7 6 5 4 4 3 3 3 3 5 7 8 9 10 10
14 16 19 16 13 12 10 9 7 7 7 7 6 9 15 9 8 8 8 9 10 10 9 8 8 8 8 7 6 6 6 4 4 4 3 3 4 5 6 8 10 10 10
13 13 12 11 9 8 7 6 6 6 6 6 4 8 16 7 7 8 9 9 9 8 7 8 7 6 6 7 7 6 5 5 4 4 4 4 4 5 6 8 9 10 10
11 11 8 4 1 2 3 3 3 3 3 4 4 6 7 8 9 10 9 9 9 8 6 6 7 6 4 4 4 5 5 5 5 5 5 4 5 6 6 9 11 11 11
9 8 6 5 4 4 4 4 4 5 6 8 8 8 8 8 9 10 9 9 9 8 6 5 5 6 7 5 3 3 4 4 4 4 7 6 6 6 8 9 10 10 11
8 8 7 7 6 6 6 6 7 7 8 8 8 8 8 8 9 9 8 8 9 8 6 4 3 4 5 6 5 5 7 9 8 6 6 6 8 10 10 10 9 9 10
9 8 8 7 7 7 7 7 7 8 8 7 7 7 7 8 8 8 8 8 7 6 5 3 3 4 4 4 6 8 10 11 11 11 8 7 9 9 8 8 9 9 10
Wind_Direction
246 235 233 227 217 209 206 206 200 191 186 186 187 188 188 188 186 187 187 180 184 182 180 182 182 170 172 170 167 174 177 160 194 241 277 306 304 304 311 301 295 296 298
276 256 244 237 220 216 217 210 200 196 193 191 187 189 191 191 189 190 188 185 186 186 185 182 182 175 174 173 176 183 185 181 182 203 240 254 251 270 280 281 288 291 293
303 273 255 239 227 226 225 216 206 201 197 193 191 193 193 192 192 193 190 188 190 189 185 185 182 177 180 178 180 184 186 188 186 190 215 229 248 247 253 256 258 263 273
326 300 274 253 238 234 228 216 208 204 201 200 200 198 195 192 191 191 189 188 189 188 186 185 181 183 182 179 181 185 184 186 187 198 217 231 239 241 245 258 285 259 277
334 323 299 276 256 244 230 218 209 206 206 202 200 199 195 193 193 191 190 187 186 185 184 185 184 183 185 181 180 181 182 184 184 194 211 224 235 250 279 294 308 307 287
331 330 322 305 280 255 238 222 213 209 204 200 202 199 199 201 200 196 189 189 187 185 184 182 180 179 187 189 191 190 189 184 183 188 206 225 250 269 296 311 314 320 315
327 329 331 323 307 280 252 227 218 210 203 205 205 204 206 207 203 199 195 187 189 188 183 179 178 182 182 185 193 194 199 203 197 189 204 225 251 271 298 301 298 298 294
323 327 330 326 315 297 267 241 227 212 208 208 208 207 209 210 206 201 196 190 191 189 186 181 178 177 183 182 187 195 199 211 217 219 215 226 239 253 259 279 294 298 293
323 325 326 323 314 303 279 253 232 218 214 213 209 207 209 209 208 202 192 186 191 190 186 183 180 176 183 182 179 187 196 209 220 221 226 239 257 279 291 299 301 303 296
322 321 318 314 308 299 284 262 236 222 221 215 216 210 208 204 207 202 191 181 186 184 182 183 183 178 181 181 176 181 194 198 198 210 228 254 274 288 291 282 268 268 277
317 315 313 310 304 296 286 262 235 220 214 215 217 209 206 201 213 205 194 181 185 181 179 180 184 182 183 186 182 186 200 193 192 179 172 205 256 268 271 262 252 248 257
314 311 309 308 302 291 278 261 236 219 212 210 208 205 204 200 214 214 200 187 187 184 182 178 183 183 183 187 187 190 201 187 141 135 144 223 255 262 268 271 270 266 262
312 308 307 304 297 284 268 253 232 220 220 214 207 208 206 202 215 221 208 192 190 180 179 180 180 181 181 186 190 188 172 146 140 148 173 212 238 268 286 286 283 277 271
304 302 301 299 294 283 261 244 229 219 219 219 214 211 204 201 201 211 208 191 184 176 172 177 179 179 170 155 165 168 150 152 154 158 170 203 258 278 279 282 285 291 286
297 293 293 289 286 282 263 243 234 227 219 217 220 212 203 203 201 198 195 189 175 167 160 159 165 168 160 155 154 155 156 154 153 155 165 191 250 273 277 282 279 284 281
290 289 287 286 284 280 272 260 246 238 235 232 226 220 221 214 202 202 203 193 178 169 161 167 170 172 170 168 167 164 163 157 152 152 162 188 239 269 281 283 281 279 281
277 280 281 280 279 277 270 259 255 248 241 236 232 227 220 214 208 206 204 194 181 172 169 172 173 173 169 166 165 160 153 146 141 146 160 188 239 269 279 281 281 281 282
275 275 273 272 270 268 266 256 243 235 237 234 230 229 222 213 210 208 204 193 184 176 174 172 169 165 161 159 156 150 141 138 139 146 161 189 231 262 272 275 278 278 285
277 273 268 265 263 262 261 251 233 225 230 229 208 222 219 210 206 207 202 197 181 165 162 161 157 154 152 149 145 142 140 139 141 147 174 205 225 243 259 268 276 280 284
275 270 267 263 260 256 254 241 222 216 220 222 214 207 198 190 194 197 195 176 157 150 151 150 147 144 143 142 140 139 138 142 152 169 192 211 229 244 261 270 274 281 287
278 273 266 260 253 247 239 224 210 207 213 217 212 206 198 186 183 173 156 140 136 138 142 142 139 139 137 136 138 143 149 156 166 180 197 216 232 246 260 268 272 279 288
284 280 273 261 247 233 215 201 197 203 207 204 191 209 197 153 129 120 114 110 109 113 126 132 132 136 144 148 151 154 161 174 185 189 201 221 237 250 260 266 271 284 294
300 299 297 294 255 164 162 167 173 169 154 132 101 87 95 100 104 104 104 103 103 104 107 115 123 124 124 132 147 161 174 190 189 182 192 219 240 250 257 265 274 286 294
322 332 351 12 36 58 73 82 88 95 93 85 85 88 91 97 100 102 103 104 102 100 97 102 116 137 148 156 173 191 211 217 201 195 199 216 239 255 260 265 275 284 292
346 357 11 23 35 47 59 66 71 73 75 79 84 86 89 93 96 99 100 100 103 104 109 114 123 147 173 191 201 212 228 236 228 208 203 218 239 250 257 267 277 284 289
2 9 17 25 33 42 52 60 64 68 74 78 82 87 91 95 98 100 102 103 105 110 120 135 165 186 205 219 231 236 237 239 236 225 214 227 243 252 262 272 276 282 288